Wind_Speed
23 22 20 18 16 18 25 30 33 34 35 33 34 35 35 34 32 29 25 24 23 24 24 24 24 26 27 28 26 23 22 22 23 23 23 23 23 23 23 23 22 21 21 21
23 22 19 17 18 17 17 21 25 26 28 30 31 31 31 32 32 29 27 27 27 27 27 25 25 26 27 25 23 22 22 23 24 23 23 22 21 20 21 22 22 22 22 22
21 20 16 16 15 14 15 15 16 18 21 23 25 25 24 25 27 28 29 29 28 27 26 25 25 24 23 21 20 21 22 23 23 23 24 23 22 21 21 22 23 23 24 24
16 15 13 13 11 9 9 11 12 15 18 17 16 15 16 17 19 20 21 22 22 21 20 20 19 19 19 19 20 21 22 23 23 24 25 25 25 24 23 23 24 24 25 26
12 14 12 13 13 11 9 9 10 11 12 10 7 6 8 10 12 12 12 11 9 9 11 13 16 17 18 19 20 20 21 23 25 26 26 25 25 25 24 24 24 24 24 25
12 14 14 16 16 14 12 12 9 8 6 4 3 4 5 7 7 7 7 6 6 8 11 14 16 16 17 18 19 21 22 24 24 24 24 23 22 22 22 23 23 24 25 26
14 15 16 17 20 18 17 16 14 11 7 4 4 4 5 5 6 7 7 8 9 11 13 14 15 15 16 17 18 20 21 22 22 22 21 20 18 17 18 19 21 23 25 26
18 17 17 17 23 25 21 18 17 14 9 7 6 5 4 5 6 7 9 11 11 12 11 12 12 13 14 16 18 19 20 20 19 18 18 16 15 14 15 17 19 24 27 29
22 21 18 13 23 27 23 21 19 14 11 9 6 5 4 4 5 7 10 12 12 10 9 9 10 11 13 15 16 17 18 17 15 14 13 12 12 14 16 20 24 27 29 30
22 25 21 14 19 25 23 22 19 14 11 10 7 5 3 3 5 8 10 10 9 8 8 8 9 11 14 15 16 15 14 13 12 11 10 12 14 17 21 25 27 26 24 24
18 24 23 15 17 23 25 24 19 13 11 10 7 5 2 3 6 9 10 9 7 7 7 8 10 12 14 14 14 13 12 11 10 10 11 14 16 18 20 22 21 18 15 14
13 21 24 18 15 19 25 26 18 13 11 9 6 3 2 3 6 10 11 11 9 8 8 8 10 11 12 13 13 13 11 10 10 10 11 12 13 15 17 17 16 13 8 4
8 17 23 18 13 17 21 22 17 14 11 8 5 3 2 3 6 9 11 11 10 9 9 9 10 11 11 12 13 13 12 11 10 9 9 11 13 15 16 15 14 12 10 8
5 14 20 19 13 16 21 21 18 16 11 7 5 3 3 4 5 8 9 10 10 10 10 10 10 10 10 12 14 14 13 12 10 9 10 11 13 14 15 15 13 10 9 9
5 13 20 20 15 15 21 21 20 18 13 8 6 5 4 3 5 7 9 10 11 11 11 10 11 10 11 12 14 14 14 12 10 9 9 9 10 12 13 13 12 10 7 6
6 13 19 20 17 15 20 21 20 19 14 11 9 7 5 3 5 7 9 10 11 11 11 10 11 11 11 12 13 14 13 12 10 9 9 9 9 10 11 11 11 10 9 8
6 11 18 20 19 17 17 18 19 19 16 12 10 8 5 2 4 6 7 10 11 11 11 11 11 12 12 13 14 14 13 12 10 9 9 10 10 10 10 11 11 11 10 10
6 10 16 20 21 18 16 17 19 19 17 13 11 9 5 1 3 4 6 9 10 11 10 10 11 12 13 15 15 14 13 12 12 12 12 13 13 13 12 12 12 12 11 11
8 9 15 19 20 20 19 19 21 21 19 16 13 10 6 3 2 3 5 7 9 10 9 9 10 11 13 15 15 13 12 12 13 13 14 15 15 15 15 15 14 14 13 12
10 10 14 17 20 21 21 21 23 23 22 19 16 13 9 5 4 2 3 5 8 9 8 8 9 10 12 13 13 12 12 12 12 13 14 14 14 15 15 15 14 14 14 14
12 11 14 16 18 20 21 23 24 25 25 23 20 16 12 9 7 5 1 3 6 7 7 7 8 9 10 11 11 11 11 12 12 13 13 14 14 14 14 15 15 15 16 16
16 13 15 18 18 18 21 24 26 27 29 27 24 20 16 13 11 8 4 1 3 5 5 6 6 7 7 8 8 9 10 11 12 13 13 14 14 15 16 16 16 17 17 18
20 16 17 21 21 20 21 24 27 29 31 29 26 23 20 16 14 12 8 3 1 2 3 4 4 4 4 5 6 7 9 11 12 13 13 14 15 16 16 16 17 17 18 18
23 21 18 22 25 23 22 25 28 31 33 31 28 26 23 19 18 16 12 7 3 1 2 2 2 1 3 5 6 7 9 10 12 12 13 14 15 16 16 16 16 16 17 17
26 25 22 21 26 27 23 24 28 32 34 32 28 27 25 22 22 20 16 12 7 4 3 1 1 1 3 5 6 7 8 9 10 11 12 13 14 15 16 16 16 15 15 14
27 27 26 23 25 29 26 23 27 34 35 32 28 27 27 25 24 23 20 16 12 8 5 4 3 3 4 5 6 6 6 7 8 9 9 10 11 13 13 14 15 15 14 14
27 29 29 26 24 29 30 26 29 36 38 35 30 29 29 27 26 25 23 19 16 11 8 7 6 6 6 6 7 6 5 5 5 5 6 6 8 9 10 10 11 12 13 14
Wind_Direction
261 267 268 262 268 256 251 254 257 260 264 270 273 272 268 268 270 269 266 262 265 272 277 276 276 280 287 293 294 289 280 279 282 285 285 285 282 278 276 274 272 267 263 259
254 260 265 261 261 263 262 259 261 265 267 270 273 270 267 264 264 265 264 264 267 271 272 275 280 282 286 287 285 281 277 279 283 285 286 287 285 280 276 273 270 266 261 258
248 252 257 255 256 257 261 261 262 266 270 274 275 273 268 261 258 260 263 267 271 272 270 274 277 279 281 280 278 277 279 284 286 288 290 291 288 281 275 270 267 263 260 255
241 237 241 237 239 244 252 259 265 271 278 285 283 273 263 258 256 258 263 268 270 269 269 272 275 278 281 282 281 283 288 290 290 292 293 294 291 285 277 270 266 264 263 260
229 227 232 229 225 232 240 246 247 253 277 300 297 266 247 248 252 257 259 256 256 262 271 276 280 282 285 289 291 293 294 293 293 294 295 293 289 285 280 274 269 266 265 265
215 217 229 227 222 225 224 230 223 212 236 281 273 220 230 232 239 236 233 241 260 275 282 285 287 288 291 295 296 295 295 295 296 296 295 293 289 284 281 278 274 271 268 266
219 225 234 230 218 215 216 222 228 211 202 217 217 227 229 224 226 235 250 263 274 282 287 289 289 289 291 295 297 298 299 300 299 297 295 294 292 288 285 283 281 278 274 270
228 231 224 218 203 207 215 219 223 221 225 228 224 222 219 224 241 258 269 273 278 282 286 290 292 294 297 303 306 307 305 304 302 301 299 296 291 289 290 292 292 290 282 271
237 236 212 193 185 197 208 217 225 235 244 241 232 218 220 241 268 280 282 284 286 289 296 303 306 307 310 314 316 315 312 309 307 307 303 295 291 294 299 302 302 297 285 269
246 240 230 209 184 193 205 216 227 239 244 242 224 207 217 265 292 295 296 298 302 305 309 312 316 317 319 322 323 321 317 313 311 312 306 300 300 305 309 312 311 304 288 266
253 240 238 226 192 191 203 216 226 232 238 231 215 210 232 292 310 314 314 315 312 310 314 317 319 321 324 328 329 326 323 321 319 318 314 311 314 318 323 328 329 321 301 268
256 237 235 231 211 198 202 212 219 224 232 227 227 226 251 306 324 329 327 323 320 322 326 324 323 325 329 333 337 338 334 331 328 329 330 331 335 339 343 347 350 349 340 309
252 232 228 230 225 211 208 210 212 221 226 223 229 233 264 307 330 339 338 332 330 330 330 329 328 329 333 338 344 348 345 336 331 334 339 341 344 348 354 358 2 6 14 25
271 229 228 231 230 217 213 213 212 218 221 223 233 242 268 302 337 349 348 344 340 334 332 333 334 331 331 337 343 348 349 342 333 328 329 333 340 350 357 4 9 11 17 32
284 230 230 231 230 219 210 212 213 215 220 229 239 241 258 298 345 355 355 353 348 341 339 342 344 341 338 340 344 348 350 346 341 338 336 339 346 357 5 13 18 22 27 36
280 228 227 231 235 225 214 217 217 215 219 230 235 232 245 299 351 358 357 356 353 349 348 350 352 352 351 351 354 358 358 356 354 354 354 355 358 5 13 20 25 29 35 42
288 231 224 229 237 237 225 223 219 213 217 230 230 225 232 294 347 355 0 0 359 358 357 355 356 0 5 8 10 10 10 11 13 14 15 16 20 25 29 30 32 35 40 45
293 238 227 230 239 242 237 227 215 213 218 227 228 226 223 247 323 346 2 5 5 6 4 0 3 8 15 20 20 21 24 30 35 38 41 43 44 46 46 46 47 50 51 52
303 253 232 228 234 241 242 231 219 218 221 226 232 235 227 222 276 331 359 6 9 13 13 12 13 17 23 26 27 30 37 45 51 56 59 59 58 58 59 61 61 60 57 52
303 265 242 232 233 239 241 235 227 224 222 222 228 237 231 217 232 274 351 13 16 19 23 24 24 26 30 32 35 42 53 61 65 68 70 69 67 66 64 63 60 56 51 46
313 272 249 239 235 238 240 237 231 227 223 222 227 233 228 214 216 228 257 26 21 21 25 28 28 30 34 38 44 55 65 72 75 77 77 76 73 69 65 62 58 56 55 53
321 285 253 243 238 237 238 236 232 228 224 221 224 227 221 210 210 214 203 101 35 21 22 25 27 33 40 44 52 64 75 82 83 82 80 77 74 69 65 62 61 61 61 61
325 302 265 245 241 239 236 234 232 227 221 219 221 222 217 209 207 208 199 177 93 15 11 18 25 36 51 59 69 79 85 86 83 79 77 75 73 71 68 66 65 65 64 62
327 314 286 254 243 242 239 233 230 224 219 219 221 219 214 210 208 206 201 195 195 267 333 4 29 67 92 93 94 95 94 90 85 80 77 75 74 73 70 67 66 66 64 62
324 318 305 270 246 241 241 236 230 221 216 215 215 213 211 211 211 208 206 206 212 230 255 269 221 155 132 119 112 108 105 99 92 85 79 76 73 71 68 64 62 60 58 56
320 316 312 290 253 239 237 234 222 211 207 207 208 209 209 211 211 209 208 210 215 226 241 246 229 193 161 143 136 133 125 111 98 89 81 74 70 65 60 56 53 50 47 45
314 312 311 301 268 240 231 227 216 207 205 207 210 211 211 211 211 210 209 210 214 222 233 241 233 211 186 169 162 160 153 133 111 96 81 68 59 54 50 46 45 44 43 41
Height
5756 5756 5756 5758 5758 5758 5759 5762 5764 5766 5767 5769 5768 5768 5770 5773 5775 5776 5778 5779 5779 5779 5778 5778 5777 5776 5775 5773 5771 5769 5768 5766 5765 5764 5762 5761 5760 5759 5758 5758 5759 5759 5760 5760
5750 5751 5752 5753 5753 5753 5754 5755 5756 5758 5760 5760 5759 5759 5761 5763 5765 5768 5769 5770 5772 5773 5773 5772 5771 5770 5768 5766 5764 5763 5762 5761 5760 5758 5756 5755 5754 5752 5752 5751 5752 5752 5753 5753
5744 5746 5748 5749 5749 5750 5750 5751 5752 5753 5754 5753 5752 5752 5753 5755 5757 5760 5762 5764 5765 5765 5765 5765 5764 5762 5761 5760 5759 5758 5756 5754 5753 5751 5749 5748 5747 5746 5745 5745 5745 5745 5745 5746
5738 5743 5745 5747 5746 5747 5748 5748 5749 5749 5749 5748 5747 5747 5748 5750 5752 5755 5757 5759 5759 5759 5759 5758 5758 5757 5756 5755 5754 5751 5749 5747 5745 5744 5742 5740 5738 5737 5737 5737 5737 5736 5737 5738
5734 5738 5741 5742 5743 5744 5746 5747 5747 5747 5747 5746 5745 5745 5746 5748 5750 5752 5754 5754 5754 5755 5755 5755 5754 5753 5752 5750 5748 5746 5744 5742 5739 5737 5734 5732 5730 5729 5728 5728 5728 5728 5728 5728
5730 5733 5737 5738 5740 5742 5745 5745 5746 5745 5745 5746 5745 5745 5747 5748 5749 5751 5752 5752 5752 5752 5752 5752 5750 5749 5747 5745 5743 5741 5739 5736 5733 5730 5727 5725 5724 5722 5721 5720 5719 5719 5720 5720
5725 5728 5730 5733 5735 5739 5742 5744 5743 5744 5745 5746 5746 5747 5748 5748 5749 5750 5751 5751 5751 5750 5749 5748 5746 5744 5743 5741 5739 5736 5733 5730 5727 5724 5721 5719 5718 5716 5714 5713 5712 5711 5711 5711
5719 5721 5725 5725 5729 5734 5736 5738 5740 5742 5744 5745 5747 5747 5748 5748 5749 5749 5750 5750 5749 5747 5745 5744 5742 5741 5739 5737 5734 5731 5728 5724 5721 5718 5716 5714 5712 5711 5709 5707 5705 5703 5702 5701
5713 5715 5717 5718 5721 5728 5732 5735 5738 5741 5743 5745 5746 5747 5747 5747 5748 5748 5749 5748 5746 5744 5742 5741 5739 5737 5735 5733 5730 5726 5723 5719 5717 5714 5712 5710 5708 5706 5704 5701 5697 5694 5690 5689
5709 5711 5713 5715 5719 5726 5730 5733 5737 5740 5742 5744 5745 5746 5746 5747 5747 5748 5747 5745 5743 5741 5740 5738 5736 5735 5732 5729 5726 5722 5719 5716 5713 5711 5709 5707 5705 5702 5699 5694 5688 5681 5677 5675
5707 5709 5712 5714 5718 5723 5728 5731 5735 5739 5742 5744 5745 5746 5746 5746 5746 5746 5745 5743 5741 5740 5738 5736 5734 5732 5729 5726 5723 5719 5716 5713 5710 5708 5706 5704 5701 5698 5693 5687 5680 5674 5669 5667
5704 5707 5711 5714 5717 5721 5725 5729 5734 5738 5741 5743 5744 5745 5745 5745 5745 5745 5744 5742 5740 5739 5736 5734 5732 5730 5727 5724 5720 5717 5713 5710 5708 5706 5703 5701 5698 5694 5689 5684 5678 5672 5668 5665
5703 5706 5710 5714 5717 5720 5724 5728 5733 5737 5740 5742 5743 5744 5744 5744 5743 5742 5741 5740 5739 5738 5735 5733 5731 5728 5725 5722 5719 5715 5711 5709 5706 5703 5701 5699 5696 5692 5688 5683 5678 5674 5670 5667
5704 5706 5710 5714 5717 5720 5723 5727 5732 5736 5738 5740 5742 5743 5743 5743 5742 5741 5740 5738 5737 5736 5734 5732 5729 5727 5724 5721 5717 5714 5710 5707 5704 5701 5699 5697 5694 5691 5687 5683 5679 5676 5673 5671
5705 5706 5710 5713 5716 5719 5723 5726 5731 5734 5737 5739 5741 5742 5742 5741 5740 5739 5738 5737 5736 5734 5733 5730 5727 5725 5722 5719 5716 5712 5708 5705 5702 5700 5698 5696 5694 5691 5688 5684 5681 5679 5677 5675
5706 5707 5710 5713 5716 5719 5722 5725 5729 5732 5735 5738 5740 5741 5741 5740 5739 5738 5737 5736 5734 5733 5731 5729 5726 5724 5721 5718 5714 5710 5707 5704 5701 5699 5697 5695 5693 5691 5688 5686 5683 5681 5679 5678
5706 5707 5710 5713 5716 5718 5720 5723 5726 5730 5733 5736 5738 5739 5740 5739 5739 5738 5737 5735 5734 5732 5730 5728 5726 5723 5720 5717 5713 5710 5707 5704 5702 5700 5698 5696 5693 5691 5689 5687 5685 5683 5682 5680
5706 5706 5708 5711 5714 5717 5719 5721 5724 5728 5731 5734 5736 5738 5738 5739 5739 5738 5737 5735 5734 5731 5730 5728 5726 5723 5720 5717 5714 5711 5708 5706 5703 5701 5699 5697 5695 5693 5691 5689 5687 5686 5684 5683
5705 5705 5706 5709 5712 5714 5717 5720 5723 5726 5729 5732 5734 5736 5737 5738 5738 5738 5737 5736 5734 5732 5730 5728 5726 5724 5721 5719 5716 5713 5711 5708 5707 5705 5703 5701 5699 5697 5695 5693 5691 5689 5688 5686
5703 5703 5704 5706 5709 5711 5714 5717 5720 5723 5726 5729 5731 5734 5736 5737 5738 5738 5737 5736 5734 5732 5730 5729 5727 5725 5723 5721 5719 5716 5714 5712 5710 5709 5707 5705 5703 5701 5700 5698 5696 5694 5692 5690
5701 5701 5702 5703 5705 5707 5709 5712 5716 5719 5722 5725 5728 5731 5733 5735 5736 5737 5737 5736 5735 5733 5731 5730 5728 5727 5725 5724 5722 5720 5718 5716 5714 5713 5711 5709 5707 5706 5704 5702 5700 5698 5696 5694
5698 5697 5698 5699 5701 5702 5704 5707 5710 5714 5717 5721 5724 5728 5730 5732 5734 5736 5736 5736 5735 5734 5732 5731 5730 5728 5727 5726 5725 5723 5722 5720 5718 5717 5715 5714 5712 5710 5708 5707 5705 5703 5701 5699
5695 5694 5693 5694 5695 5697 5698 5701 5704 5708 5712 5716 5720 5724 5727 5729 5732 5734 5735 5735 5735 5734 5733 5732 5731 5730 5729 5728 5727 5726 5725 5724 5723 5721 5720 5718 5716 5714 5713 5711 5710 5708 5706 5704
5691 5688 5687 5688 5689 5691 5692 5695 5698 5702 5707 5711 5715 5720 5723 5726 5729 5731 5733 5733 5733 5734 5734 5733 5732 5731 5730 5730 5729 5729 5728 5727 5726 5725 5724 5722 5720 5719 5717 5716 5714 5712 5710 5708
5686 5683 5681 5680 5682 5684 5686 5688 5691 5696 5701 5706 5711 5715 5718 5722 5725 5728 5730 5731 5732 5733 5733 5733 5732 5732 5731 5731 5731 5731 5730 5730 5729 5728 5727 5726 5724 5723 5721 5719 5718 5716 5714 5712
5680 5677 5674 5673 5674 5677 5680 5682 5685 5689 5695 5701 5705 5709 5713 5717 5721 5724 5726 5727 5729 5730 5732 5732 5732 5731 5731 5731 5731 5732 5732 5731 5731 5730 5730 5729 5727 5726 5724 5722 5720 5718 5716 5714
5673 5670 5667 5665 5665 5669 5673 5675 5678 5683 5689 5695 5699 5704 5708 5712 5716 5719 5721 5723 5726 5727 5729 5730 5731 5731 5731 5731 5731 5732 5732 5732 5732 5732 5731 5730 5729 5727 5726 5724 5722 5721 5719 5717